When you browse on this site, cookies collect data to enhance your experience and personalize the content and advertising you see.
Visit our Privacy Policy to learn more. By continuing to use the site, you agree to this use of cookies and data.
  • In Germany
  • List of Countries
  • For 7 days
  • Water Temperature
  • Weather Map
  • Weather Widgets
  • user-avatar
    Login

    Hourly Weather Sherpur

    Today, 19 September, Thursday

    Time Temperature Precipitation Wind Pressure Humidity
    00:00 +18°C° 0 mm 1 mps 611 mmHg 18%
    01:00 +16°C° 0 mm 1 mps 611 mmHg 18%
    02:00 +16°C° 0 mm 1 mps 611 mmHg 17%
    03:00 +15°C° 0 mm 1 mps 611 mmHg 17%
    04:00 +15°C° 0 mm 1 mps 611 mmHg 16%
    05:00 +14°C° 0 mm 1 mps 610 mmHg 16%
    06:00 +16°C° 0 mm 1 mps 612 mmHg 14%
    07:00 +19°C° 0 mm 1 mps 613 mmHg 12%
    08:00 +21°C° 0 mm 1 mps 614 mmHg 10%
    09:00 +23°C° 0 mm 1 mps 615 mmHg 9%
    10:00 +25°C° 0 mm 1 mps 615 mmHg 7%
    11:00 +27°C° 0 mm 1 mps 615 mmHg 6%
    12:00 +28°C° 0 mm 1 mps 615 mmHg 6%
    13:00 +29°C° 0 mm 2 mps 615 mmHg 5%
    14:00 +30°C° 0 mm 2 mps 615 mmHg 5%
    15:00 +30°C° 0 mm 3 mps 615 mmHg 5%
    16:00 +30°C° 0 mm 3 mps 615 mmHg 6%
    17:00 +30°C° 0 mm 4 mps 615 mmHg 6%
    18:00 +27°C° 0 mm 3 mps 614 mmHg 9%
    19:00 +24°C° 0 mm 3 mps 614 mmHg 12%
    20:00 +20°C° 0 mm 2 mps 613 mmHg 15%
    21:00 +19°C° 0 mm 2 mps 613 mmHg 16%
    22:00 +18°C° 0 mm 2 mps 613 mmHg 18%
    23:00 +18°C° 0 mm 2 mps 612 mmHg 20%

    Tomorrow, 20 September, Friday

    Time Temperature Precipitation Wind Pressure Humidity
    00:00 +18°C° 0 mm 1 mps 612 mmHg 21%
    01:00 +16°C° 0 mm 1 mps 611 mmHg 22%
    02:00 +15°C° 0 mm 1 mps 611 mmHg 23%
    03:00 +15°C° 0 mm 1 mps 611 mmHg 24%
    04:00 +14°C° 0 mm 1 mps 610 mmHg 25%
    05:00 +14°C° 0 mm 1 mps 610 mmHg 26%
    06:00 +16°C° 0 mm 1 mps 611 mmHg 23%
    07:00 +18°C° 0 mm 1 mps 612 mmHg 20%
    08:00 +20°C° 0 mm 1 mps 613 mmHg 17%
    09:00 +22°C° 0 mm 1 mps 613 mmHg 15%
    10:00 +24°C° 0 mm 1 mps 614 mmHg 13%
    11:00 +26°C° 0 mm 1 mps 614 mmHg 11%
    12:00 +27°C° 0 mm 1 mps 614 mmHg 10%
    13:00 +28°C° 0 mm 1 mps 614 mmHg 9%
    14:00 +29°C° 0 mm 2 mps 614 mmHg 8%
    15:00 +29°C° 0 mm 2 mps 614 mmHg 8%
    16:00 +29°C° 0 mm 2 mps 613 mmHg 8%
    17:00 +29°C° 0 mm 2 mps 613 mmHg 8%
    18:00 +26°C° 0 mm 2 mps 613 mmHg 10%
    19:00 +24°C° 0 mm 2 mps 612 mmHg 13%
    20:00 +20°C° 0 mm 2 mps 612 mmHg 16%
    21:00 +19°C° 0 mm 2 mps 612 mmHg 17%
    22:00 +19°C° 0 mm 2 mps 611 mmHg 18%
    23:00 +18°C° 0 mm 2 mps 611 mmHg 19%

    Day after tomorrow, 21 September, Saturday

    Time Temperature Precipitation Wind Pressure Humidity
    00:00 +18°C° 0 mm 1 mps 611 mmHg 21%
    01:00 +16°C° 0 mm 1 mps 610 mmHg 23%
    02:00 +15°C° 0 mm 1 mps 609 mmHg 25%
    03:00 +15°C° 0 mm 1 mps 609 mmHg 26%
    04:00 +14°C° 0 mm 1 mps 609 mmHg 27%
    05:00 +13°C° 0 mm 1 mps 609 mmHg 28%
    06:00 +15°C° 0 mm 0 mps 610 mmHg 24%
    07:00 +17°C° 0 mm 0 mps 611 mmHg 21%
    08:00 +19°C° 0 mm 0 mps 612 mmHg 17%
    09:00 +21°C° 0 mm 0 mps 612 mmHg 15%
    10:00 +24°C° 0 mm 1 mps 613 mmHg 13%
    11:00 +26°C° 0 mm 1 mps 613 mmHg 12%
    12:00 +27°C° 0 mm 1 mps 613 mmHg 10%
    13:00 +28°C° 0 mm 2 mps 613 mmHg 9%
    14:00 +30°C° 0 mm 2 mps 612 mmHg 8%
    15:00 +30°C° 0 mm 2 mps 612 mmHg 8%
    16:00 +30°C° 0 mm 2 mps 612 mmHg 8%
    17:00 +30°C° 0 mm 3 mps 612 mmHg 8%
    18:00 +27°C° 0 mm 2 mps 611 mmHg 12%
    19:00 +24°C° 0 mm 2 mps 611 mmHg 16%
    20:00 +21°C° 0 mm 1 mps 610 mmHg 20%
    21:00 +20°C° 0 mm 1 mps 610 mmHg 23%
    22:00 +19°C° 0 mm 1 mps 609 mmHg 26%
    23:00 +18°C° 0 mm 1 mps 609 mmHg 29%

    22 September, Sunday

    Time Temperature Precipitation Wind Pressure Humidity
    00:00 +16°C° 0 mm 0 mps 609 mmHg 31%
    01:00 +15°C° 0 mm 0 mps 608 mmHg 34%
    02:00 +15°C° 0 mm 0 mps 608 mmHg 36%
    03:00 +14°C° 0 mm 0 mps 608 mmHg 38%
    04:00 +14°C° 0 mm 0 mps 608 mmHg 40%
    05:00 +13°C° 0 mm 0 mps 608 mmHg 42%
    06:00 +16°C° 0 mm 0 mps 609 mmHg 37%
    07:00 +18°C° 0 mm 0 mps 611 mmHg 31%
    08:00 +21°C° 0 mm 0 mps 612 mmHg 25%
    09:00 +24°C° 0 mm 1 mps 613 mmHg 25%
    10:00 +25°C° 0 mm 1 mps 613 mmHg 24%
    11:00 +27°C° 0 mm 1 mps 614 mmHg 23%
    12:00 +28°C° 0 mm 2 mps 614 mmHg 21%
    13:00 +29°C° 0 mm 2 mps 614 mmHg 18%
    14:00 +30°C° 0 mm 2 mps 614 mmHg 15%
    15:00 +30°C° 0 mm 2 mps 614 mmHg 15%
    16:00 +30°C° 0 mm 2 mps 614 mmHg 15%
    17:00 +31°C° 0 mm 2 mps 614 mmHg 14%
    18:00 +28°C° 0 mm 2 mps 614 mmHg 18%
    19:00 +25°C° 0 mm 2 mps 613 mmHg 21%
    20:00 +23°C° 0 mm 2 mps 613 mmHg 25%
    21:00 +21°C° 0 mm 2 mps 613 mmHg 24%
    22:00 +20°C° 0 mm 2 mps 613 mmHg 22%
    23:00 +19°C° 0 mm 2 mps 612 mmHg 21%

    23 September, Monday

    Time Temperature Precipitation Wind Pressure Humidity
    00:00 +19°C° 0 mm 1 mps 612 mmHg 21%
    01:00 +18°C° 0 mm 1 mps 612 mmHg 21%
    02:00 +16°C° 0 mm 1 mps 611 mmHg 20%
    03:00 +16°C° 0 mm 1 mps 611 mmHg 21%
    04:00 +15°C° 0 mm 1 mps 611 mmHg 22%
    05:00 +13°C° 0 mm 0 mps 610 mmHg 22%
    06:00 +15°C° 0 mm 0 mps 612 mmHg 20%
    07:00 +18°C° 0 mm 0 mps 613 mmHg 17%
    08:00 +20°C° 0 mm 0 mps 614 mmHg 14%
    09:00 +22°C° 0 mm 0 mps 615 mmHg 12%
    10:00 +26°C° 0 mm 1 mps 615 mmHg 11%
    11:00 +27°C° 0 mm 1 mps 615 mmHg 10%
    12:00 +29°C° 0 mm 1 mps 615 mmHg 9%
    13:00 +30°C° 0 mm 2 mps 615 mmHg 8%
    14:00 +31°C° 0 mm 2 mps 615 mmHg 8%
    15:00 +31°C° 0 mm 2 mps 615 mmHg 8%
    16:00 +31°C° 0 mm 2 mps 614 mmHg 8%
    17:00 +31°C° 0 mm 3 mps 614 mmHg 9%
    18:00 +28°C° 0 mm 2 mps 614 mmHg 13%
    19:00 +25°C° 0 mm 2 mps 613 mmHg 18%
    20:00 +22°C° 0 mm 1 mps 612 mmHg 23%
    21:00 +21°C° 0 mm 1 mps 612 mmHg 25%
    22:00 +20°C° 0 mm 1 mps 612 mmHg 28%
    23:00 +19°C° 0 mm 1 mps 612 mmHg 30%

    24 September, Tuesday

    Time Temperature Precipitation Wind Pressure Humidity
    00:00 +19°C° 0 mm 1 mps 611 mmHg 30%
    01:00 +16°C° 0 mm 0 mps 611 mmHg 29%
    02:00 +15°C° 0 mm 0 mps 611 mmHg 29%
    03:00 +15°C° 0 mm 0 mps 611 mmHg 30%
    04:00 +14°C° 0 mm 0 mps 611 mmHg 31%
    05:00 +14°C° 0 mm 0 mps 610 mmHg 32%
    06:00 +16°C° 0 mm 0 mps 612 mmHg 26%
    07:00 +19°C° 0 mm 0 mps 613 mmHg 21%
    08:00 +21°C° 0 mm 0 mps 615 mmHg 16%
    09:00 +25°C° 0 mm 1 mps 615 mmHg 14%
    10:00 +27°C° 0 mm 1 mps 615 mmHg 11%
    11:00 +28°C° 0 mm 1 mps 616 mmHg 8%
    12:00 +29°C° 0 mm 1 mps 616 mmHg 8%
    13:00 +30°C° 0 mm 2 mps 615 mmHg 7%
    14:00 +31°C° 0 mm 2 mps 615 mmHg 6%
    15:00 +31°C° 0 mm 2 mps 615 mmHg 6%
    16:00 +31°C° 0 mm 2 mps 615 mmHg 7%
    17:00 +31°C° 0 mm 2 mps 615 mmHg 7%
    18:00 +28°C° 0 mm 2 mps 614 mmHg 11%
    19:00 +25°C° 0 mm 2 mps 614 mmHg 16%
    20:00 +21°C° 0 mm 2 mps 613 mmHg 20%
    21:00 +21°C° 0 mm 1 mps 613 mmHg 23%
    22:00 +20°C° 0 mm 1 mps 612 mmHg 25%
    23:00 +19°C° 0 mm 1 mps 612 mmHg 28%
    Show more